Tyler, TX

8:23 PM CDT on May 27, 2017 (GMT -0500)
Tyler Pounds

Weather History for KTYR - November, 2012

Change the Weather History Date:

Monday, November 26, 2012

  Actual Average Record
Temperature  
Mean Temperature 66 °F 52 °F  
Max Temperature 80 °F 61 °F 85 °F (1965)
Min Temperature 51 °F 43 °F 26 °F (1993)
Degree Days  
Heating Degree Days 0 13  
Month to date heating degree days 167 239  
Since 1 July heating degree days 277 316  
Cooling Degree Days 1 0  
Month to date cooling degree days 26 14  
Year to date cooling degree days 2998 2407  
Growing Degree Days 16 (Base 50)    
Moisture  
Dew Point 57 °F    
Average Humidity 69    
Maximum Humidity 90    
Minimum Humidity 48    
Precipitation  
Precipitation 0.00 in 0.11 in 3.15 in (1978)
Month to date precipitation 0.28 3.58  
Year to date precipitation 31.83 41.03  
Snow  
Snow 0.00 in - - ()
Month to date snowfall 0.0  
Since 1 July snowfall 0.0  
Since 1 September snowfall 0.0  
Snow Depth 0.00 in    
Sea Level Pressure  
Sea Level Pressure 29.98 in    
Wind  
Wind Speed 11 mph (SSW)    
Max Wind Speed 22 mph    
Max Gust Speed 30 mph    
Visibility 10 miles    
Events      
T = Trace of Precipitation, MM = Missing Value Source: NWS Daily Summary

Daily Weather History Graph

Daily Weather History Graph

Search for Another Location

Airport or City:

Trip Planner

Search our weather history database for the weather conditions in past years. The results will help you decide how hot, cold, wet, or windy it might be!

Date:

Astronomy

Nov. 26, 2012 Rise Set
Actual Time 7:01 AM CST 5:16 PM CST
Civil Twilight 6:34 AM CST 5:43 PM CST
Nautical Twilight 6:04 AM CST 6:13 PM CST
Astronomical Twilight 5:34 AM CST 6:43 PM CST
Moon 4:07 PM CST (11/26) 5:15 AM CST (11/26)
Length of Visible Light 11h 08m
Length of Day
10h 15m
Waxing Gibbous, 97% of the Moon is Illuminated
Nov 26
Waxing Gibbous
Nov 28
Full
Dec 6
Last Quarter
Dec 13
New
Dec 19
First Quarter

Hourly Weather History & Observations

Time (CST) Temp. Dew Point Humidity Pressure Visibility Wind Dir Wind Speed Gust Speed Precip Events Conditions
12:53 AM 59.0 °F 55.0 °F 87% 29.94 in 10.0 mi South 9.2 mph - N/A   Partly Cloudy
1:53 AM 60.1 °F 55.9 °F 86% 29.94 in 10.0 mi South 9.2 mph - N/A   Mostly Cloudy
2:31 AM 60.8 °F 55.4 °F 82% 29.95 in 10.0 mi South 8.1 mph - N/A   Mostly Cloudy
2:53 AM 61.0 °F 57.0 °F 87% 29.94 in 10.0 mi South 6.9 mph - N/A   Overcast
3:18 AM 60.8 °F 57.2 °F 88% 29.95 in 10.0 mi South 6.9 mph - N/A   Overcast
3:53 AM 62.1 °F 57.9 °F 86% 29.93 in 10.0 mi South 9.2 mph - N/A   Overcast
4:53 AM 63.0 °F 59.0 °F 87% 29.92 in 10.0 mi South 11.5 mph - N/A   Overcast
5:29 AM 62.6 °F 60.8 °F 94% 29.94 in 10.0 mi South 11.5 mph - N/A   Overcast
5:53 AM 64.0 °F 60.1 °F 87% 29.94 in 10.0 mi South 10.4 mph - N/A   Overcast
6:16 AM 62.6 °F 60.8 °F 94% 29.95 in 10.0 mi South 8.1 mph - N/A   Mostly Cloudy
6:25 AM 62.6 °F 60.8 °F 94% 29.95 in 10.0 mi South 8.1 mph - N/A   Mostly Cloudy
6:35 AM 62.6 °F 60.8 °F 94% 29.96 in 10.0 mi South 9.2 mph - N/A   Mostly Cloudy
6:45 AM 64.4 °F 60.8 °F 88% 29.96 in 10.0 mi South 9.2 mph - N/A   Overcast
6:53 AM 64.0 °F 61.0 °F 90% 29.95 in 10.0 mi South 9.2 mph - N/A   Overcast
7:53 AM 64.0 °F 61.0 °F 90% 29.96 in 9.0 mi South 10.4 mph - N/A   Mostly Cloudy
8:04 AM 64.4 °F 60.8 °F 88% 29.98 in 9.0 mi South 9.2 mph - N/A   Mostly Cloudy
8:22 AM 64.4 °F 62.6 °F 94% 29.98 in 10.0 mi South 11.5 mph - N/A   Overcast
8:53 AM 66.9 °F 62.1 °F 84% 29.98 in 10.0 mi South 13.8 mph - N/A   Mostly Cloudy
9:53 AM 69.1 °F 62.1 °F 78% 29.99 in 10.0 mi SSW 12.7 mph - N/A   Overcast
10:09 AM 69.8 °F 60.8 °F 73% 30.00 in 10.0 mi SSW 12.7 mph 19.6 mph N/A   Overcast
10:53 AM 73.0 °F 60.1 °F 64% 29.97 in 10.0 mi SSW 17.3 mph 24.2 mph N/A   Mostly Cloudy
11:10 AM 71.6 °F 60.8 °F 69% 29.98 in 10.0 mi SSW 17.3 mph 23.0 mph N/A   Scattered Clouds
11:53 AM 73.9 °F 60.1 °F 62% 29.95 in 10.0 mi South 16.1 mph - N/A   Partly Cloudy
12:53 PM 77.0 °F 60.1 °F 56% 29.92 in 10.0 mi SSW 11.5 mph 17.3 mph N/A   Scattered Clouds
1:53 PM 78.1 °F 59.0 °F 52% 29.90 in 10.0 mi SSW 8.1 mph - N/A   Clear
2:53 PM 79.0 °F 57.9 °F 48% 29.90 in 10.0 mi SSW 10.4 mph - N/A   Clear
3:53 PM 79.0 °F 57.9 °F 48% 29.92 in 10.0 mi WSW 8.1 mph - N/A   Mostly Cloudy
4:53 PM 75.9 °F 57.9 °F 54% 29.95 in 10.0 mi WNW 3.5 mph - N/A   Mostly Cloudy
5:53 PM 73.0 °F 57.9 °F 59% 29.97 in 10.0 mi NNW 3.5 mph - N/A   Mostly Cloudy
6:53 PM 71.1 °F 54.0 °F 55% 30.01 in 10.0 mi NNW 10.4 mph - N/A   Scattered Clouds
7:53 PM 62.1 °F 50.0 °F 65% 30.04 in 10.0 mi NNW 19.6 mph 26.5 mph N/A   Clear
8:53 PM 55.9 °F 45.0 °F 67% 30.07 in 10.0 mi NNW 19.6 mph 27.6 mph N/A   Clear
9:50 PM 53.6 °F 42.8 °F 67% 30.13 in 10.0 mi NNW 15.0 mph 20.7 mph N/A   Mostly Cloudy
9:53 PM 53.1 °F 43.0 °F 69% 30.13 in 10.0 mi NNW 13.8 mph 20.7 mph N/A   Mostly Cloudy
10:53 PM 53.1 °F 43.0 °F 69% 30.14 in 10.0 mi North 11.5 mph - N/A   Overcast
11:53 PM 51.1 °F 39.9 °F 66% 30.16 in 10.0 mi North 15.0 mph 21.9 mph N/A   Overcast